Rbgn^[z[y[W
メイン
   新天体発見情報
     Comet C/2019 S4 (Lemmon)
投稿するにはまず登録を

スレッド表示 | 新しいものから 前のトピック | 次のトピック | 下へ
投稿者 スレッド
佐藤裕久
投稿日時: 2020-3-31 19:43
モデレータ
登録日: 2005-6-12
居住地: 日本
投稿: 2063
オンライン
Comet C/2019 S4 (Lemmon)

2019年9月19日UT、D. RankinはMt Lemmonサーベイの1.5-m反射望遠鏡で得たCCD画像から
外見上の小惑星状天体を発見した。MPEC 2019-T83にA/2019 S4の仮符号が付されて発表
されていた(MPEC 2018-H54上に指定されたガイドラインの下でそのような明示の資格を
得なかったにもかかわらず明示されていた)。
CCD位置観測者によって彗星活動が見つけられた。

彗星機能の報告は次の通り:

OC   Date        Reporter           Coma    Tail    PA          Exposures
568  2019-10-24  M. Micheli                  10"    190
H06  2019-12-27  H. Sato             8"                         7x60s
461  2019-11-24  K. Sarneczky       2.2"     10"    140         7x120s
461  2019-12-26  K. Sarneczky        4"      15"     90         5x120s
461  2020-01-01  K. Sarneczky        5"      10"     90         7x120s

発見位置は次のとおり、

     2019 UT             R.A. (2000) Decl.       Mag.   Observer
     Sept.17.45385    4 56 04.21   +55 27 22.9   20.3   Rankin
          17.45920    4 56 04.07   +55 27 28.8   21.2     "
          17.46455    4 56 04.00   +55 27 35.2   20.7     "
          17.46990    4 56 03.97   +55 27 41.5   22.0     "
          17.49346    4 56 03.63   +55 28 08.8            "
          17.49847    4 56 03.62   +55 28 14.8            "
          17.50347    4 56 03.54   +55 28 20.8            "
          17.50849    4 56 03.50   +55 28 27.5            "
          18.43236    4 55 50.49   +55 46 06.1   21.1     "
          18.43659    4 55 50.42   +55 46 11.4   21.2     "
          18.44091    4 55 50.44   +55 46 16.0   21.6     "
          18.44522    4 55 50.29   +55 46 20.7   20.6     "
          19.49523    4 55 33.21   +56 06 35.7   21.4     "
          19.49982    4 55 33.09   +56 06 41.2   20.9     "
          19.50416    4 55 33.02   +56 06 45.8   20.9     "

MPCの楕円軌道要素と位置推算表は次のとおり、

Orbital elements:
    C/2019 S4 (Lemmon)                                                          
Epoch 2020 Apr. 21.0 TT = JDT 2458960.5                                         
T 2020 Apr. 7.94405 TT                                  Rudenko                 
q   3.4416962            (2000.0)            P               Q                  
z  +0.0041600      Peri.   71.35586     +0.17416599     -0.41760502             
 +/-0.0000078      Node    63.16844     -0.12879824     -0.90750243             
e   0.9856825      Incl.   92.02443     +0.97625674     -0.04522594             
From 71 observations 2019 Sept. 17-2020 Feb. 20, mean residual 0".4.            
                                                                                
    C/2019 S4 (Lemmon)                                                          
Epoch 2020 May 31.0 TT = JDT 2459000.5                                          
T 2020 Apr. 7.94618 TT                                  Rudenko                 
q   3.4416990            (2000.0)            P               Q                  
z  +0.0041808      Peri.   71.35644     +0.17416269     -0.41761500             
 +/-0.0000078      Node    63.16792     -0.12880818     -0.90749743             
e   0.9856110      Incl.   92.02432     +0.97625602     -0.04523418             
From 71 observations 2019 Sept. 17-2020 Feb. 20, mean residual 0".4.            
                                                                                
Ephemeris:
Date    TT    R. A. (2000) Decl.     Delta      r    Elong.  Phase   m1
2020 02 27    23 20 26.8 +61 17 13   3.6641  3.4623    70.5    15.6  19.7
...
2020 03 13    23 26 45.3 +62 16 02   3.7466  3.4500    65.2    15.2  19.7
...
2020 03 21    23 30 16.2 +63 08 16   3.7782  3.4457    63.2    15.0  19.8
...
2020 03 27    23 32 48.9 +63 56 34   3.7962  3.4435    62.1    14.8  19.8
2020 03 28    23 33 13.4 +64 05 21   3.7987  3.4432    61.9    14.8  19.8
2020 03 29    23 33 37.6 +64 14 21   3.8011  3.4429    61.8    14.8  19.8
...
2020 04 04    23 35 53.7 +65 12 38   3.8124  3.4419    61.1    14.7  19.8
...
2020 04 12    23 38 22.0 +66 41 24   3.8203  3.4419    60.7    14.7  19.8
...
2020 04 27    23 40 02.5 +70 00 17   3.8148  3.4462    61.3    14.8  19.8

(MPEC 2020-F168、CBET 4738)

スレッド表示 | 新しいものから 前のトピック | 次のトピック | トップ

投稿するにはまず登録を
 
© 1999 Tsutomu Seki.